EW1423 Weather Reports


Display with metric or nautical units.
time (UTC)temp
F
wind
direction
speed
MPH
gust
MPH
rain 1hr
in
rain 24hr
in
rain mn
in
humidity
%
barometer
mb
20260902194804 61 341 0.0 0.0 0.00 0.00 0.00 85 1021.4
20260902194303 61 341 0.0 0.0 0.00 0.00 0.00 85 1021.4
20260902193804 62 341 0.0 0.0 0.00 0.00 0.00 85 1021.4
20260902193304 62 341 0.0 0.0 0.00 0.00 0.00 85 1021.4
20260902192804 62 341 0.0 0.0 0.00 0.00 0.00 84 1021.4
20260902192306 63 341 0.0 0.0 0.00 0.00 0.00 84 1021.4
20260902191804 63 341 0.0 0.0 0.00 0.00 0.00 83 1021.4
20260902191304 63 341 0.0 0.0 0.00 0.00 0.00 83 1021.4
20260902190804 63 341 0.0 0.0 0.00 0.00 0.00 82 1021.4
20260902185803 63 341 0.0 0.0 0.00 0.00 0.00 82 1021.2
20260902185306 64 341 0.0 0.0 0.00 0.00 0.00 81 1021.0
20260902184803 64 341 0.0 0.0 0.00 0.00 0.00 81 1021.0
20260902184304 64 341 0.0 0.0 0.00 0.00 0.00 80 1020.8
20260902183803 64 341 0.0 0.0 0.00 0.00 0.00 80 1020.8
20260902182803 65 341 0.0 0.0 0.00 0.00 0.00 79 1020.8
20260902182306 66 341 0.0 0.0 0.00 0.00 0.00 78 1020.8
20260902181803 66 341 0.0 0.0 0.00 0.00 0.00 76 1020.8
20260902180804 67 341 0.0 0.0 0.00 0.00 0.00 74 1020.6
20260902180304 68 341 0.0 0.0 0.00 0.00 0.00 74 1020.6
20260902175803 69 341 0.0 0.0 0.00 0.00 0.00 71 1020.6
20260902175307 69 341 0.0 0.0 0.00 0.00 0.00 71 1020.3
20260902174803 70 341 0.0 0.0 0.00 0.00 0.00 69 1020.3
20260902174303 70 341 0.0 0.0 0.00 0.00 0.00 68 1020.3
20260902173303 71 341 0.0 0.0 0.00 0.00 0.00 64 1020.3
20260902172804 72 341 0.0 2.0 0.00 0.00 0.00 64 1020.3
20260902172308 72 341 0.0 1.0 0.00 0.00 0.00 62 1020.3
20260902171803 72 341 0.0 2.0 0.00 0.00 0.00 62 1020.3
20260902171303 73 36 0.0 1.0 0.00 0.00 0.00 61 1020.3
20260902170303 73 27 0.0 2.0 0.00 0.00 0.00 59 1020.2
20260902165308 74 299 0.0 0.0 0.00 0.00 0.00 58 1020.2
20260902164804 74 336 1.0 5.0 0.00 0.00 0.00 57 1020.2
20260902164303 74 256 1.0 2.0 0.00 0.00 0.00 57 1020.2
20260902163803 75 317 1.0 5.0 0.00 0.00 0.00 57 1020.3
20260902163304 75 302 0.0 6.0 0.00 0.00 0.00 56 1020.3
20260902162804 76 262 0.0 3.0 0.00 0.00 0.00 55 1020.3
20260902162307 76 302 0.0 5.0 0.00 0.00 0.00 54 1020.2
20260902161804 77 321 1.0 5.0 0.00 0.00 0.00 53 1020.2
20260902161304 77 293 0.0 1.0 0.00 0.00 0.00 54 1020.2
20260902160803 77 297 0.0 5.0 0.00 0.00 0.00 54 1020.2
20260902160303 77 257 1.0 5.0 0.00 0.00 0.00 53 1020.1
20260902155804 77 264 0.0 9.0 0.00 0.00 0.00 54 1020.1
20260902154803 77 276 0.0 0.0 0.00 0.00 0.00 53 1020.1
20260902154304 77 272 0.0 1.0 0.00 0.00 0.00 55 1020.1
20260902153804 77 238 0.0 1.0 0.00 0.00 0.00 54 1020.1
20260902152307 77 42 1.0 5.0 0.00 0.00 0.00 54 1020.1
20260902150803 78 38 0.0 5.0 0.00 0.00 0.00 52 1020.2
20260902150304 79 302 0.0 1.0 0.00 0.00 0.00 52 1020.2
20260902145803 79 316 0.0 6.0 0.00 0.00 0.00 53 1020.2
20260902145305 79 281 1.0 5.0 0.00 0.00 0.00 52 1020.2
20260902144803 80 298 0.0 2.0 0.00 0.00 0.00 51 1020.2
20260902144304 80 266 1.0 5.0 0.00 0.00 0.00 51 1020.2
20260902143804 81 317 2.0 8.0 0.00 0.00 0.00 50 1020.3
20260902143303 82 3 1.0 3.0 0.00 0.00 0.00 48 1020.3
20260902142306 81 315 0.0 5.0 0.00 0.00 0.00 51 1020.3
20260902141804 81 282 1.0 6.0 0.00 0.00 0.00 49 1020.3
20260902141304 81 287 1.0 5.0 0.00 0.00 0.00 49 1020.3
20260902140804 82 357 1.0 8.0 0.00 0.00 0.00 50 1020.3
20260902140304 82 329 0.0 3.0 0.00 0.00 0.00 50 1020.3
20260902135803 81 288 0.0 2.0 0.00 0.00 0.00 51 1020.3
20260902135306 80 210 1.0 5.0 0.00 0.00 0.00 52 1020.3
20260902134804 79 320 1.0 6.0 0.00 0.00 0.00 53 1020.3
20260902134303 79 298 2.0 7.0 0.00 0.00 0.00 52 1020.3
20260902133803 79 281 0.0 3.0 0.00 0.00 0.00 53 1020.3
20260902133304 80 324 0.0 3.0 0.00 0.00 0.00 52 1020.2
20260902132803 81 336 0.0 3.0 0.00 0.00 0.00 51 1020.2
20260902132306 82 10 0.0 5.0 0.00 0.00 0.00 48 1020.2
20260902131804 82 24 0.0 0.0 0.00 0.00 0.00 50 1020.2
20260902131303 82 0 0.0 2.0 0.00 0.00 0.00 50 1020.3
20260902125804 81 316 1.0 3.0 0.00 0.00 0.00 50 1020.5
20260902125305 80 58 1.0 6.0 0.00 0.00 0.00 50 1020.5
20260902124804 80 275 0.0 2.0 0.00 0.00 0.00 52 1020.5
20260902123803 80 32 1.0 3.0 0.00 0.00 0.00 52 1020.5
20260902123304 79 278 2.0 5.0 0.00 0.00 0.00 52 1020.7
20260902122803 80 345 0.0 2.0 0.00 0.00 0.00 51 1020.7
20260902122305 81 253 1.0 7.0 0.00 0.00 0.00 49 1020.7
20260902121803 80 130 0.0 0.0 0.00 0.00 0.00 50 1020.7
20260902121303 79 28 1.0 3.0 0.00 0.00 0.00 50 1020.7
20260902120304 77 38 1.0 3.0 0.00 0.00 0.00 55 1020.7
20260902115803 77 39 0.0 2.0 0.00 0.00 0.00 56 1020.7
20260902114804 78 34 2.0 5.0 0.00 0.00 0.00 54 1020.6
20260902114304 79 283 0.0 2.0 0.00 0.00 0.00 52 1020.6
20260902113804 79 275 0.0 0.0 0.00 0.00 0.00 52 1020.6
20260902113304 79 275 0.0 2.0 0.00 0.00 0.00 52 1020.8
20260902112803 80 337 0.0 3.0 0.00 0.00 0.00 53 1020.8
20260902111804 80 335 1.0 3.0 0.00 0.00 0.00 50 1021.1
20260902110804 81 69 0.0 2.0 0.00 0.00 0.00 52 1021.1
20260902110304 81 66 0.0 5.0 0.00 0.00 0.00 52 1021.1
20260902105803 82 64 0.0 0.0 0.00 0.00 0.00 52 1021.4
20260902105306 81 64 0.0 5.0 0.00 0.00 0.00 53 1021.4
20260902104303 80 205 0.0 0.0 0.00 0.00 0.00 55 1021.5
20260902103804 79 230 0.0 0.0 0.00 0.00 0.00 58 1021.6
20260902103304 78 230 0.0 0.0 0.00 0.00 0.00 56 1021.6
20260902102307 76 136 0.0 0.0 0.00 0.00 0.00 60 1021.8
20260902101804 77 171 0.0 0.0 0.00 0.00 0.00 61 1021.8
20260902101304 77 171 0.0 1.0 0.00 0.00 0.00 59 1021.8
20260902100804 77 169 1.0 5.0 0.00 0.00 0.00 61 1021.8
20260902100304 76 117 0.0 0.0 0.00 0.00 0.00 61 1021.8
20260902095306 75 175 0.0 0.0 0.00 0.00 0.00 63 1021.8
20260902094804 74 175 0.0 1.0 0.00 0.00 0.00 64 1022.0
20260902094304 74 327 0.0 0.0 0.00 0.00 0.00 67 1022.0
20260902093804 73 195 0.0 0.0 0.00 0.00 0.00 66 1022.0
20260902093303 72 73 0.0 0.0 0.00 0.00 0.00 68 1022.0
20260902092804 71 73 0.0 0.0 0.00 0.00 0.00 69 1022.0
20260902092305 71 73 0.0 0.0 0.00 0.00 0.00 69 1022.0
20260902091303 68 73 0.0 0.0 0.00 0.00 0.00 74 1022.0
20260902090304 66 73 0.0 0.0 0.00 0.00 0.00 78 1022.0
20260902084804 65 49 0.0 1.0 0.00 0.00 0.00 79 1022.0
20260902084303 65 127 0.0 0.0 0.00 0.00 0.00 78 1022.1
20260902083303 64 80 0.0 0.0 0.00 0.00 0.00 80 1022.1
20260902082804 64 94 0.0 0.0 0.00 0.00 0.00 80 1022.1
20260902082309 64 91 0.0 0.0 0.00 0.00 0.00 78 1022.1
20260902081804 65 163 0.0 0.0 0.00 0.00 0.00 78 1022.1
20260902081304 65 150 0.0 0.0 0.00 0.00 0.00 81 1022.1
20260902080803 64 153 0.0 0.0 0.00 0.00 0.00 81 1022.0
20260902080304 63 174 0.0 3.0 0.00 0.00 0.00 82 1022.0
20260902075803 62 163 0.0 0.0 0.00 0.00 0.00 83 1022.0
20260902074803 61 156 0.0 0.0 0.00 0.00 0.00 86 1022.0
20260902074304 61 153 0.0 0.0 0.00 0.00 0.00 86 1022.0
20260902073803 61 142 0.0 3.0 0.00 0.00 0.00 86 1022.0
20260902073304 61 56 0.0 2.0 0.00 0.00 0.00 85 1022.0
20260902072803 61 112 0.0 0.0 0.00 0.00 0.00 86 1022.0
20260902072309 60 132 0.0 0.0 0.00 0.00 0.00 86 1022.0
20260902071803 60 121 0.0 0.0 0.00 0.00 0.00 86 1022.0
20260902070804 59 92 0.0 0.0 0.00 0.00 0.00 88 1022.0
20260902070303 58 88 0.0 0.0 0.00 0.00 0.00 88 1022.0
20260902065804 58 88 0.0 0.0 0.00 0.00 0.00 89 1022.0
20260902065306 58 88 0.0 0.0 0.00 0.00 0.00 88 1022.0
20260902064803 58 88 0.0 0.0 0.00 0.00 0.00 89 1022.0
20260902064303 58 164 0.0 0.0 0.00 0.00 0.00 90 1022.0
20260902063804 57 103 0.0 0.0 0.00 0.00 0.00 91 1021.9
20260902063304 57 68 0.0 0.0 0.00 0.00 0.00 92 1021.9
20260902062804 56 68 0.0 0.0 0.00 0.00 0.00 93 1021.9
20260902062306 56 68 0.0 0.0 0.00 0.00 0.00 94 1022.1
20260902061804 56 65 0.0 0.0 0.00 0.00 0.00 94 1022.1
20260902061303 55 59 0.0 0.0 0.00 0.00 0.00 94 1021.9
20260902060304 55 186 0.0 0.0 0.00 0.00 0.00 95 1021.9
20260902055804 55 186 0.0 0.0 0.00 0.00 0.00 96 1021.9
20260902055306 54 186 0.0 0.0 0.00 0.00 0.00 97 1021.9
20260902054303 54 186 0.0 0.0 0.00 0.00 0.00 97 1021.9
20260902053304 54 186 0.0 0.0 0.00 0.00 0.00 98 1021.9
20260902052306 53 186 0.0 1.0 0.00 0.00 0.00 98 1021.9
20260902051803 53 186 0.0 0.0 0.00 0.00 0.00 99 1021.9
20260902051303 53 186 0.0 0.0 0.00 0.00 0.00 99 1021.9
20260902050304 52 194 0.0 1.0 0.00 0.00 0.00 100 1021.9
20260902045306 52 195 0.0 0.0 0.00 0.00 0.00 100 1021.8
20260902044304 52 195 0.0 0.0 0.00 0.00 0.00 100 1021.8
20260902043804 52 195 0.0 0.0 0.00 0.00 0.00 100 1021.8
20260902043303 52 195 0.0 0.0 0.00 0.00 0.00 100 1021.8
20260902042803 52 195 0.0 0.0 0.00 0.00 0.00 100 1021.9
20260902042308 52 195 0.0 0.0 0.00 0.00 0.00 100 1021.9
20260902041303 52 195 0.0 0.0 0.00 0.00 0.00 100 1021.9
20260902040303 52 195 0.0 0.0 0.00 0.00 0.00 100 1021.7
20260902035803 52 195 0.0 0.0 0.00 0.00 0.00 100 1021.9
20260902034804 52 195 0.0 0.0 0.00 0.00 0.00 100 1021.9
20260902034304 52 195 0.0 0.0 0.00 0.00 0.00 100 1021.9
20260902033804 52 195 0.0 0.0 0.00 0.00 0.00 100 1021.9
20260902033304 52 195 0.0 0.0 0.00 0.00 0.00 100 1021.9
20260902032306 52 195 0.0 0.0 0.00 0.00 0.00 100 1021.9
20260902030803 51 326 0.0 0.0 0.00 0.00 0.00 100 1021.9
20260902030303 52 326 0.0 0.0 0.00 0.00 0.00 99 1021.9
20260902025306 52 326 0.0 0.0 0.00 0.00 0.00 99 1021.9
20260902024804 52 326 0.0 0.0 0.00 0.00 0.00 99 1021.9
20260902024303 52 326 0.0 0.0 0.00 0.00 0.00 99 1021.9
20260902022804 53 326 0.0 0.0 0.00 0.00 0.00 98 1021.8
20260902022306 53 326 0.0 0.0 0.00 0.00 0.00 98 1021.8
20260902021804 53 326 0.0 0.0 0.00 0.00 0.00 98 1021.8
20260902021304 53 326 0.0 0.0 0.00 0.00 0.00 98 1021.8
20260902020804 53 326 0.0 0.0 0.00 0.00 0.00 98 1021.8
20260902020303 53 326 0.0 0.0 0.00 0.00 0.00 98 1021.9
20260902015804 54 326 0.0 0.0 0.00 0.00 0.00 98 1021.9
20260902015306 54 326 0.0 0.0 0.00 0.00 0.00 98 1021.9
20260902014803 54 326 0.0 0.0 0.00 0.00 0.00 98 1021.9
20260902014304 53 326 0.0 0.0 0.00 0.00 0.00 98 1021.9
20260902013803 54 326 0.0 0.0 0.00 0.00 0.00 98 1021.9
20260902013304 54 326 0.0 0.0 0.00 0.00 0.00 98 1022.0
20260902012308 53 326 0.0 0.0 0.00 0.00 0.00 98 1022.0
20260902010803 54 326 0.0 0.0 0.00 0.00 0.00 99 1022.0
20260902010303 54 326 0.0 0.0 0.00 0.00 0.00 99 1022.0
20260902005804 54 326 0.0 0.0 0.00 0.00 0.00 99 1022.0
20260902005306 53 326 0.0 0.0 0.00 0.00 0.00 99 1022.0
20260902004804 53 326 0.0 0.0 0.00 0.00 0.00 99 1022.1
20260902004303 53 326 0.0 0.0 0.00 0.00 0.00 99 1022.1
20260902003803 53 326 0.0 0.0 0.00 0.00 0.00 99 1022.1
20260902002804 53 326 0.0 0.0 0.00 0.00 0.00 99 1022.2
20260902002306 53 326 0.0 0.0 0.00 0.00 0.00 98 1022.3
20260902001804 53 326 0.0 0.0 0.00 0.00 0.00 99 1022.3
20260902001303 53 326 0.0 0.0 0.00 0.00 0.00 99 1022.3
20260902000804 53 326 0.0 0.0 0.00 0.00 0.00 99 1022.3
20260902000304 53 326 0.0 0.0 0.00 0.00 0.00 99 1022.3
20260901235803 53 326 0.0 0.0 0.00 0.00 0.00 98 1022.2
20260901235307 53 326 0.0 0.0 0.00 0.00 0.00 98 1022.2
20260901234805 53 326 0.0 0.0 0.00 0.00 0.00 98 1022.2
20260901233803 54 326 0.0 0.0 0.00 0.00 0.00 97 1022.2
20260901233303 54 326 0.0 0.0 0.00 0.00 0.00 97 1022.2
20260901232805 54 326 0.0 0.0 0.00 0.00 0.00 97 1022.2
20260901232306 54 326 0.0 0.0 0.00 0.00 0.00 97 1022.2
20260901231803 54 326 0.0 0.0 0.00 0.00 0.00 97 1022.3
20260901231304 54 326 0.0 0.0 0.00 0.00 0.00 97 1022.3
20260901225804 55 326 0.0 0.0 0.00 0.00 0.00 96 1022.3
20260901225306 55 326 0.0 0.0 0.00 0.00 0.00 96 1022.3
20260901224803 55 326 0.0 0.0 0.00 0.00 0.00 95 1022.4
20260901223804 55 326 0.0 0.0 0.00 0.00 0.00 95 1022.1
20260901223304 55 326 0.0 0.0 0.00 0.00 0.00 95 1022.1
20260901222803 55 326 0.0 0.0 0.00 0.00 0.00 95 1022.1
20260901222306 55 326 0.0 0.0 0.00 0.00 0.00 95 1022.1
20260901221804 55 326 0.0 0.0 0.00 0.00 0.00 95 1022.1
20260901221304 56 326 0.0 0.0 0.00 0.00 0.00 94 1022.1
20260901220810 56 326 0.0 0.0 0.00 0.00 0.00 94 1022.1
20260901220303 56 326 0.0 0.0 0.00 0.00 0.00 94 1022.1
20260901214804 56 326 0.0 0.0 0.00 0.00 0.00 93 1022.1
20260901214303 56 326 0.0 0.0 0.00 0.00 0.00 93 1022.1
20260901213804 56 326 0.0 0.0 0.00 0.00 0.00 93 1022.1
20260901213304 56 326 0.0 0.0 0.00 0.00 0.00 93 1022.1
20260901212804 57 326 0.0 0.0 0.00 0.00 0.00 92 1022.1
20260901211803 57 326 0.0 0.0 0.00 0.00 0.00 92 1022.1
20260901210804 57 326 0.0 0.0 0.00 0.00 0.00 92 1021.8
20260901205804 58 326 0.0 0.0 0.00 0.00 0.00 90 1021.8
20260901205306 58 326 0.0 0.0 0.00 0.00 0.00 91 1021.8
20260901204804 58 326 0.0 0.0 0.00 0.00 0.00 90 1021.8
20260901204304 58 326 0.0 0.0 0.00 0.00 0.00 90 1021.8
20260901203804 58 326 0.0 0.0 0.00 0.00 0.00 90 1021.8
20260901202805 58 326 0.0 0.0 0.00 0.00 0.00 90 1021.8
20260901201804 59 326 0.0 0.0 0.00 0.00 0.00 89 1021.8
20260901201304 59 326 0.0 0.0 0.00 0.00 0.00 89 1021.8
20260901200803 59 326 0.0 0.0 0.00 0.00 0.00 88 1021.8
20260901195804 60 326 0.0 0.0 0.00 0.00 0.00 87 1021.8
20260901195306 60 326 0.0 0.0 0.00 0.00 0.00 86 1021.7